�������l�o���
Date,Time,MP-1(��Sv/h),MP-2(��Sv/h),MP-3(��Sv/h),MP-4(��Sv/h),MP-5(��Sv/h),MP-6(��Sv/h),MP-7(��Sv/h),MP-8(��Sv/h),����,����(m/s),���J
2020/10/02,00:00,0.666,0.950,0.608,1.161,0.837,0.388,0.672,0.634,-,CALM,��
2020/10/02,00:10,0.667,0.952,0.606,1.163,0.835,0.388,0.674,0.634,���k��,1.1,��
2020/10/02,00:20,0.666,0.952,0.608,1.161,0.836,0.386,0.673,0.632,���k��,1.9,��
2020/10/02,00:30,0.666,0.952,0.608,1.163,0.835,0.386,0.672,0.633,���k��,3.1,��
2020/10/02,00:40,0.665,0.951,0.607,1.163,0.834,0.386,0.673,0.632,���k��,4.6,��
2020/10/02,00:50,0.665,0.950,0.607,1.164,0.836,0.386,0.671,0.633,���k��,3.8,��
2020/10/02,01:00,0.665,0.951,0.607,1.161,0.835,0.386,0.671,0.633,���k��,4.5,��
2020/10/02,01:10,0.666,0.950,0.608,1.162,0.838,0.386,0.672,0.634,���k��,3.9,��
2020/10/02,01:20,0.667,0.950,0.608,1.162,0.834,0.387,0.673,0.633,���k��,3.7,��
2020/10/02,01:30,0.666,0.952,0.608,1.161,0.834,0.386,0.672,0.632,��,0.9,��
2020/10/02,01:40,0.667,0.952,0.607,1.161,0.835,0.385,0.671,0.632,-,CALM,��
2020/10/02,01:50,0.666,0.952,0.608,1.163,0.835,0.385,0.671,0.633,��,1.7,��
2020/10/02,02:00,0.666,0.951,0.607,1.160,0.836,0.388,0.673,0.632,��쐼,1.5,��
2020/10/02,02:10,0.666,0.950,0.607,1.162,0.834,0.387,0.672,0.632,���쐼,1.2,��
2020/10/02,02:20,0.665,0.952,0.608,1.161,0.836,0.386,0.672,0.632,�k��,1.5,��
2020/10/02,02:30,0.664,0.949,0.607,1.162,0.835,0.388,0.672,0.634,�k��,1.5,��
2020/10/02,02:40,0.667,0.953,0.605,1.161,0.835,0.387,0.672,0.632,�k��,0.9,��
2020/10/02,02:50,0.666,0.950,0.606,1.160,0.836,0.386,0.672,0.633,�k��,0.6,��
2020/10/02,03:00,0.667,0.950,0.607,1.161,0.836,0.386,0.673,0.631,���k��,0.6,��
2020/10/02,03:10,0.664,0.950,0.607,1.161,0.836,0.386,0.672,0.632,��쐼,1.7,��
2020/10/02,03:20,0.665,0.950,0.606,1.161,0.835,0.385,0.673,0.633,���쐼,2.5,��
2020/10/02,03:30,0.666,0.953,0.606,1.161,0.836,0.386,0.673,0.633,���쐼,2.2,��
2020/10/02,03:40,0.666,0.950,0.606,1.158,0.835,0.386,0.671,0.631,�쐼,1.5,��
2020/10/02,03:50,0.664,0.949,0.608,1.163,0.836,0.386,0.671,0.633,���쐼,2.6,��
2020/10/02,04:00,0.665,0.949,0.606,1.160,0.835,0.386,0.673,0.632,�쐼,2.5,��
2020/10/02,04:10,0.666,0.950,0.607,1.164,0.834,0.386,0.673,0.632,���쐼,1.7,��
2020/10/02,04:20,0.667,0.948,0.607,1.163,0.833,0.386,0.672,0.633,��,1.7,��
2020/10/02,04:30,0.665,0.950,0.607,1.161,0.835,0.385,0.672,0.633,���쐼,1.9,��
2020/10/02,04:40,0.665,0.948,0.607,1.159,0.836,0.384,0.671,0.632,��,2.0,��
2020/10/02,04:50,0.665,0.949,0.606,1.162,0.835,0.385,0.672,0.633,��,1.9,��
2020/10/02,05:00,0.665,0.951,0.606,1.160,0.836,0.385,0.671,0.631,��,2.3,��
2020/10/02,05:10,0.667,0.950,0.608,1.161,0.835,0.385,0.671,0.633,��,2.6,��
2020/10/02,05:20,0.665,0.948,0.607,1.162,0.835,0.384,0.673,0.632,��,3.4,��
2020/10/02,05:30,0.663,0.950,0.604,1.162,0.834,0.384,0.671,0.632,��,3.6,��
2020/10/02,05:40,0.666,0.948,0.605,1.162,0.834,0.386,0.671,0.633,���k��,3.1,��
2020/10/02,05:50,0.665,0.949,0.606,1.162,0.837,0.384,0.672,0.632,���k��,3.2,��
2020/10/02,06:00,0.664,0.948,0.605,1.159,0.834,0.385,0.671,0.633,���k��,3.0,��
2020/10/02,06:10,0.664,0.949,0.606,1.161,0.836,0.385,0.671,0.632,���k��,3.1,��
2020/10/02,06:20,0.666,0.948,0.605,1.160,0.832,0.386,0.669,0.633,���k��,2.6,��
2020/10/02,06:30,0.665,0.950,0.605,1.161,0.834,0.385,0.672,0.632,���k��,3.2,��
2020/10/02,06:40,0.664,0.952,0.606,1.162,0.836,0.385,0.670,0.633,���k��,2.7,��
2020/10/02,06:50,0.667,0.951,0.606,1.162,0.836,0.385,0.672,0.632,��,3.3,��
2020/10/02,07:00,0.666,0.950,0.608,1.160,0.836,0.386,0.673,0.633,��,3.5,��
2020/10/02,07:10,0.666,0.950,0.607,1.163,0.835,0.385,0.672,0.633,��,2.5,��
2020/10/02,07:20,0.665,0.951,0.607,1.164,0.836,0.385,0.674,0.633,���k��,2.8,��
2020/10/02,07:30,0.666,0.950,0.606,1.164,0.835,0.385,0.671,0.632,���k��,2.6,��
2020/10/02,07:40,0.668,0.951,0.607,1.163,0.834,0.385,0.673,0.632,���k��,2.6,��
2020/10/02,07:50,0.668,0.950,0.607,1.165,0.837,0.386,0.673,0.633,�k��,2.5,��
2020/10/02,08:00,0.666,0.948,0.607,1.164,0.834,0.386,0.674,0.633,�k�k��,3.4,��
2020/10/02,08:10,0.666,0.949,0.608,1.161,0.837,0.386,0.671,0.632,�k��,4.0,��
2020/10/02,08:20,0.668,0.947,0.609,1.162,0.837,0.385,0.673,0.635,�k��,3.4,��
2020/10/02,08:30,0.667,0.948,0.607,1.164,0.837,0.385,0.671,0.633,�k��,3.0,��
2020/10/02,08:40,0.667,0.944,0.608,1.164,0.835,0.387,0.675,0.635,�k��,2.3,��
2020/10/02,08:50,0.667,0.949,0.606,1.162,0.838,0.386,0.673,0.634,���k��,2.5,��
2020/10/02,09:00,0.668,0.949,0.609,1.163,0.837,0.385,0.672,0.634,�k��,2.5,��
2020/10/02,09:10,0.669,0.947,0.609,1.165,0.836,0.386,0.672,0.632,�k��,2.5,��
2020/10/02,09:20,0.669,0.948,0.607,1.164,0.836,0.386,0.671,0.631,�k��,1.7,��
2020/10/02,09:30,0.668,0.949,0.608,1.164,0.836,0.385,0.675,0.632,���k��,3.9,��
2020/10/02,09:40,0.668,0.949,0.607,1.164,0.836,0.384,0.674,0.632,�k��,3.8,��
2020/10/02,09:50,0.670,0.948,0.607,1.162,0.837,0.384,0.672,0.632,���k��,3.8,��
2020/10/02,10:00,0.668,0.949,0.606,1.163,0.836,0.384,0.671,0.631,���k��,4.2,��
2020/10/02,10:10,0.670,0.951,0.608,1.163,0.837,0.384,0.672,0.630,���k��,3.8,��
2020/10/02,10:20,0.670,0.950,0.606,1.164,0.839,0.384,0.673,0.632,���k��,4.0,��
2020/10/02,10:30,0.669,0.950,0.606,1.164,0.838,0.383,0.673,0.632,���k��,4.4,��
2020/10/02,10:40,0.669,0.950,0.607,1.163,0.839,0.385,0.674,0.631,���k��,4.6,��
2020/10/02,10:50,0.670,0.951,-,1.164,0.840,0.384,0.673,0.632,���k��,4.3,��
2020/10/02,11:00,0.669,0.950,-,1.165,0.841,0.383,0.673,0.632,�k��,4.6,��
2020/10/02,11:10,0.669,0.951,-,1.163,0.842,0.384,0.672,0.631,�k��,5.1,��
2020/10/02,11:20,0.668,0.950,-,1.164,0.838,0.384,0.672,0.632,�k��,4.2,��
2020/10/02,11:30,0.668,0.954,-,1.165,0.840,0.385,0.673,0.632,�k��,4.5,��
2020/10/02,11:40,0.669,0.952,-,1.166,0.838,0.385,0.673,0.632,�k��,4.3,��
2020/10/02,11:50,0.669,0.956,-,1.165,0.839,0.383,0.674,0.632,�k��,4.1,��
2020/10/02,12:00,0.668,0.955,-,1.166,0.840,0.384,0.673,0.633,�k��,4.0,��
2020/10/02,12:10,0.671,0.957,-,1.164,0.839,0.385,0.672,0.632,�k��,3.7,��
2020/10/02,12:20,0.668,0.955,-,1.166,0.840,0.385,0.673,0.632,���k��,3.2,��
2020/10/02,12:30,0.670,0.955,0.607,1.166,0.840,0.384,0.674,0.631,���k��,3.0,��
2020/10/02,12:40,0.670,0.957,0.610,1.167,0.840,0.384,0.672,0.632,�k��,2.6,��
2020/10/02,12:50,0.669,0.954,0.608,1.166,0.841,0.385,0.672,0.631,���k��,2.6,��
2020/10/02,13:00,0.670,0.953,0.608,1.167,0.840,0.385,0.673,0.631,��,2.9,��
2020/10/02,13:10,0.669,0.955,0.609,1.166,0.843,0.386,0.673,0.633,��,2.5,��
2020/10/02,13:20,0.669,0.956,0.608,1.168,0.842,0.384,0.674,0.631,��,2.6,��
2020/10/02,13:30,0.669,0.954,0.608,1.165,0.843,0.384,0.672,0.630,���k��,2.6,��
2020/10/02,13:40,0.669,0.954,0.608,1.168,0.844,0.385,0.675,0.631,��,2.9,��
2020/10/02,13:50,0.671,0.955,0.608,1.167,0.843,0.384,0.674,0.632,��,2.5,��
2020/10/02,14:00,0.669,0.956,0.609,1.169,0.842,0.386,0.673,0.631,���k��,2.0,��
2020/10/02,14:10,0.672,0.955,0.609,1.168,0.842,0.386,0.674,0.634,�k��,2.8,��
2020/10/02,14:20,0.670,0.958,0.610,1.168,0.842,0.385,0.674,0.631,��,2.3,��
2020/10/02,14:30,0.670,0.955,0.609,1.167,0.843,0.385,0.674,0.632,���k��,2.0,��
2020/10/02,14:40,0.667,0.957,0.611,1.168,0.844,0.386,0.675,0.632,���쓌,2.5,��
2020/10/02,14:50,0.670,0.957,0.607,1.168,0.843,0.384,0.674,0.634,���k��,1.4,��
2020/10/02,15:00,0.668,0.958,0.609,1.168,0.843,0.384,0.673,0.633,���쓌,1.5,��
2020/10/02,15:10,0.669,0.957,0.608,1.166,0.843,0.385,0.672,0.633,���쓌,2.6,��
2020/10/02,15:20,0.669,0.956,0.608,1.167,0.845,0.386,0.672,0.633,���쓌,2.6,��
2020/10/02,15:30,0.668,0.958,0.607,1.167,0.843,0.383,0.673,0.632,���쓌,2.8,��
2020/10/02,15:40,0.670,0.959,0.609,1.169,0.842,0.385,0.674,0.632,���쓌,2.8,��
2020/10/02,15:50,0.671,0.958,0.609,1.168,0.843,0.385,0.672,0.633,���쓌,2.6,��
2020/10/02,16:00,0.670,0.957,0.610,1.167,0.844,0.387,0.673,0.631,��,2.3,��
2020/10/02,16:10,0.670,0.960,0.609,1.167,0.843,0.386,0.671,0.632,���쓌,2.6,��
2020/10/02,16:20,0.671,0.959,0.611,1.169,0.842,0.388,0.672,0.632,�쓌,3.0,��
2020/10/02,16:30,0.669,0.960,0.610,1.167,0.844,0.387,0.672,0.633,�쓌,2.6,��
2020/10/02,16:40,0.670,0.959,0.609,1.168,0.841,0.385,0.674,0.633,�쓌,2.3,��
2020/10/02,16:50,0.669,0.959,0.609,1.169,0.843,0.387,0.673,0.632,���쓌,3.0,��
2020/10/02,17:00,0.667,0.961,0.610,1.168,0.841,0.387,0.672,0.633,�쓌,2.6,��
2020/10/02,17:10,0.671,0.961,0.607,1.169,0.842,0.387,0.672,0.634,�쓌,2.6,��
2020/10/02,17:20,0.670,0.962,0.608,1.171,0.842,0.387,0.673,0.635,�쓌,2.0,��
2020/10/02,17:30,0.671,0.962,0.609,1.167,0.843,0.387,0.673,0.634,�쓌,2.9,��
2020/10/02,17:40,0.671,0.962,0.609,1.167,0.843,0.388,0.676,0.633,���쓌,2.8,��
2020/10/02,17:50,0.671,0.962,0.611,1.168,0.843,0.385,0.675,0.635,��쓌,2.3,��
2020/10/02,18:00,0.673,0.962,0.613,1.168,0.845,0.387,0.674,0.634,�쓌,1.7,��
2020/10/02,18:10,0.674,0.963,0.611,1.168,0.846,0.386,0.674,0.633,�쓌,1.5,��
2020/10/02,18:20,0.672,0.961,0.611,1.167,0.846,0.386,0.675,0.635,��,2.2,��
2020/10/02,18:30,0.670,0.961,0.613,1.169,0.845,0.388,0.674,0.633,��,2.2,��
2020/10/02,18:40,0.673,0.963,0.611,1.168,0.846,0.386,0.674,0.633,��,2.0,��
2020/10/02,18:50,0.673,0.961,0.611,1.169,0.845,0.387,0.674,0.635,��,2.3,��
2020/10/02,19:00,0.670,0.960,0.610,1.169,0.845,0.387,0.674,0.634,��,2.2,��
2020/10/02,19:10,0.671,0.961,0.610,1.169,0.846,0.387,0.673,0.634,��,1.7,��
2020/10/02,19:20,0.670,0.960,0.612,1.169,0.846,0.386,0.673,0.637,��쓌,1.7,��
2020/10/02,19:30,0.669,0.963,0.609,1.166,0.844,0.386,0.674,0.634,��쓌,1.7,��
2020/10/02,19:40,0.672,0.962,0.612,1.167,0.845,0.386,0.674,0.633,��쓌,1.7,��
2020/10/02,19:50,0.670,0.961,0.612,1.167,0.846,0.386,0.675,0.633,��,1.5,��
2020/10/02,20:00,0.670,0.963,0.611,1.168,0.845,0.387,0.674,0.632,��,1.5,��
2020/10/02,20:10,0.669,0.963,0.608,1.169,0.844,0.387,0.673,0.634,��쐼,1.5,��
2020/10/02,20:20,0.671,0.961,0.611,1.168,0.844,0.386,0.673,0.634,��쐼,1.4,��
2020/10/02,20:30,0.671,0.961,0.610,1.169,0.846,0.386,0.674,0.633,��,1.4,��
2020/10/02,20:40,0.672,0.962,0.611,1.168,0.846,0.387,0.673,0.635,��,1.2,��
2020/10/02,20:50,0.671,0.962,0.610,1.169,0.845,0.387,0.672,0.633,��,1.7,��
2020/10/02,21:00,0.670,0.960,0.610,1.169,0.844,0.387,0.673,0.634,��,0.9,��
2020/10/02,21:10,0.671,0.961,0.611,1.170,0.845,0.386,0.673,0.634,��,1.2,��
2020/10/02,21:20,0.670,0.960,0.610,1.169,0.846,0.386,0.675,0.635,��쐼,1.5,��
2020/10/02,21:30,0.671,0.961,0.610,1.166,0.842,0.385,0.672,0.634,�쐼,1.1,��
2020/10/02,21:40,0.671,0.960,0.611,1.168,0.844,0.387,0.673,0.633,�쐼,1.1,��
2020/10/02,21:50,0.671,0.959,0.611,1.167,0.845,0.386,0.674,0.634,��쐼,1.2,��
2020/10/02,22:00,0.670,0.960,0.612,1.167,0.845,0.386,0.673,0.633,�쐼,0.9,��
2020/10/02,22:10,0.671,0.960,0.609,1.168,0.845,0.387,0.674,0.635,���쐼,1.5,��
2020/10/02,22:20,0.668,0.960,0.610,1.170,0.844,0.386,0.674,0.634,�쐼,0.9,��
2020/10/02,22:30,0.672,0.962,0.609,1.167,0.846,0.386,0.672,0.633,��쐼,1.2,��
2020/10/02,22:40,0.672,0.960,0.611,1.167,0.845,0.387,0.673,0.634,��,1.5,��
2020/10/02,22:50,0.671,0.960,0.610,1.168,0.843,0.387,0.673,0.633,��쐼,1.7,��
2020/10/02,23:00,0.671,0.962,0.611,1.166,0.845,0.385,0.673,0.635,��,1.7,��
2020/10/02,23:10,0.670,0.959,0.609,1.166,0.846,0.388,0.673,0.634,��,2.0,��
2020/10/02,23:20,0.672,0.959,0.610,1.168,0.845,0.386,0.673,0.632,��,1.5,��
2020/10/02,23:30,0.671,0.961,0.610,1.169,0.846,0.386,0.673,0.635,��쐼,1.7,��
2020/10/02,23:40,0.670,0.961,0.612,1.168,0.845,0.386,0.674,0.632,��쐼,1.4,��
2020/10/02,23:50,0.671,0.959,0.609,1.170,0.844,0.386,0.674,0.634,�쐼,1.2,��
